Time,TemperatureF,DewpointF,PressureIn,WindDirection,WindDirectionDegrees,WindSpeedMPH,WindSpeedGustMPH,Humidity,HourlyPrecipIn,Conditions,Clouds,dailyrainin,SoftwareType,DateUTC
2013-05-01 00:00:00,65.1,61.8,29.88,SSW,202,0.0,0.0,89,0.00,,---,0.00,VWS V14.01,2013-04-30 14:00:00,
2013-05-01 00:05:00,65.1,61.8,29.88,South,180,0.0,0.0,89,0.00,,---,0.00,VWS V14.01,2013-04-30 14:05:00,
2013-05-01 00:10:00,65.1,61.8,29.88,South,180,0.9,0.9,89,0.00,,---,0.00,VWS V14.01,2013-04-30 14:10:00,
2013-05-01 00:15:00,65.1,61.8,29.88,SSE,158,1.6,1.6,89,0.00,,---,0.00,VWS V14.01,2013-04-30 14:15:00,
2013-05-01 00:20:00,65.1,62.1,29.88,SW,225,0.0,0.0,90,0.00,,---,0.00,VWS V14.01,2013-04-30 14:20:00,
2013-05-01 00:25:00,65.1,62.1,29.88,West,270,0.0,0.0,90,0.00,,---,0.00,VWS V14.01,2013-04-30 14:25:00,
2013-05-01 00:30:00,65.1,62.1,29.88,SW,225,0.0,0.0,90,0.00,,---,0.00,VWS V14.01,2013-04-30 14:30:00,
2013-05-01 00:35:00,64.9,61.9,29.88,SW,225,0.0,0.0,90,0.00,,---,0.00,VWS V14.01,2013-04-30 14:35:00,
2013-05-01 00:40:00,64.9,61.9,29.88,SW,225,0.0,0.0,90,0.00,,---,0.00,VWS V14.01,2013-04-30 14:40:00,
2013-05-01 00:45:00,64.9,61.9,29.88,South,180,0.0,0.0,90,0.00,,---,0.00,VWS V14.01,2013-04-30 14:45:00,
2013-05-01 00:50:00,64.9,61.9,29.88,South,180,0.0,0.0,90,0.00,,---,0.00,VWS V14.01,2013-04-30 14:50:00,
2013-05-01 00:55:00,64.8,61.8,29.88,South,180,1.1,1.6,90,0.00,,---,0.00,VWS V14.01,2013-04-30 14:55:00,
2013-05-01 01:00:00,64.8,61.8,29.88,ESE,112,0.0,1.1,90,0.00,,---,0.00,VWS V14.01,2013-04-30 15:00:00,
2013-05-01 01:05:00,64.8,61.8,29.88,SE,135,0.0,0.0,90,0.00,,---,0.00,VWS V14.01,2013-04-30 15:05:00,
2013-05-01 01:10:00,64.8,61.8,29.88,SE,135,0.0,0.0,90,0.00,,---,0.00,VWS V14.01,2013-04-30 15:10:00,
2013-05-01 01:15:00,64.8,61.8,29.85,ESE,112,0.0,0.0,90,0.00,,---,0.00,VWS V14.01,2013-04-30 15:15:00,
2013-05-01 01:20:00,64.6,61.6,29.85,ESE,112,0.0,0.0,90,0.00,,---,0.00,VWS V14.01,2013-04-30 15:20:00,
2013-05-01 01:25:00,64.6,61.6,29.85,ESE,112,0.0,0.0,90,0.00,,---,0.00,VWS V14.01,2013-04-30 15:25:00,
2013-05-01 01:30:00,64.6,61.6,29.85,ESE,112,0.0,0.0,90,0.00,,---,0.00,VWS V14.01,2013-04-30 15:30:00,
2013-05-01 01:35:00,64.6,61.6,29.85,East,90,1.1,1.1,90,0.00,,---,0.00,VWS V14.01,2013-04-30 15:35:00,
2013-05-01 01:40:00,64.6,61.6,29.85,ENE,68,0.0,0.0,90,0.00,,---,0.00,VWS V14.01,2013-04-30 15:40:00,
2013-05-01 01:45:00,64.4,61.4,29.85,ENE,68,0.0,0.0,90,0.00,,---,0.00,VWS V14.01,2013-04-30 15:45:00,
2013-05-01 01:50:00,64.4,61.4,29.85,ENE,68,0.0,0.0,90,0.00,,---,0.00,VWS V14.01,2013-04-30 15:50:00,
2013-05-01 01:55:00,64.4,61.4,29.85,ENE,68,0.0,0.0,90,0.00,,---,0.00,VWS V14.01,2013-04-30 15:55:00,
2013-05-01 02:00:00,64.4,61.4,29.85,ENE,68,0.9,0.9,90,0.00,,---,0.00,VWS V14.01,2013-04-30 16:00:00,
2013-05-01 02:05:00,64.4,61.4,29.85,ENE,68,0.0,0.0,90,0.00,,---,0.00,VWS V14.01,2013-04-30 16:05:00,
2013-05-01 02:10:00,64.4,61.4,29.85,ENE,68,0.0,0.0,90,0.00,,---,0.00,VWS V14.01,2013-04-30 16:10:00,
2013-05-01 02:15:00,64.4,61.4,29.85,ENE,68,0.0,0.0,90,0.00,,---,0.00,VWS V14.01,2013-04-30 16:15:00,
2013-05-01 02:20:00,64.4,61.4,29.85,ESE,112,0.0,0.0,90,0.00,,---,0.00,VWS V14.01,2013-04-30 16:20:00,
2013-05-01 02:25:00,64.6,61.6,29.85,South,180,0.9,2.0,90,0.00,,---,0.00,VWS V14.01,2013-04-30 16:25:00,
2013-05-01 02:30:00,64.6,61.6,29.85,South,180,0.0,0.0,90,0.00,,---,0.00,VWS V14.01,2013-04-30 16:30:00,
2013-05-01 02:35:00,64.6,61.6,29.85,SW,225,0.0,0.0,90,0.00,,---,0.00,VWS V14.01,2013-04-30 16:35:00,
2013-05-01 02:40:00,64.6,61.6,29.85,SW,225,0.0,0.0,90,0.00,,---,0.00,VWS V14.01,2013-04-30 16:40:00,
2013-05-01 02:45:00,64.8,61.8,29.85,SW,225,0.0,0.0,90,0.00,,---,0.00,VWS V14.01,2013-04-30 16:45:00,
2013-05-01 02:50:00,64.8,61.8,29.85,SSW,202,0.0,0.0,90,0.00,,---,0.00,VWS V14.01,2013-04-30 16:50:00,
2013-05-01 02:55:00,64.8,61.8,29.85,SSW,202,0.0,0.0,90,0.00,,---,0.00,VWS V14.01,2013-04-30 16:55:00,
2013-05-01 03:00:00,64.8,62.1,29.82,SW,225,2.0,2.0,91,0.00,,---,0.00,VWS V14.01,2013-04-30 17:00:00,
2013-05-01 03:05:00,64.9,62.2,29.82,SSW,202,0.0,0.0,91,0.00,,---,0.00,VWS V14.01,2013-04-30 17:05:00,
2013-05-01 03:10:00,64.9,62.2,29.82,SSE,158,0.0,0.0,91,0.00,,---,0.00,VWS V14.01,2013-04-30 17:10:00,
2013-05-01 03:15:00,64.9,62.2,29.82,SW,225,0.0,0.0,91,0.00,,---,0.00,VWS V14.01,2013-04-30 17:15:00,
2013-05-01 03:20:00,64.9,62.2,29.82,West,270,0.0,0.0,91,0.00,,---,0.00,VWS V14.01,2013-04-30 17:20:00,
2013-05-01 03:25:00,65.1,62.4,29.82,West,270,0.0,0.0,91,0.00,,---,0.00,VWS V14.01,2013-04-30 17:25:00,
2013-05-01 03:30:00,64.9,62.2,29.82,NW,315,1.1,1.1,91,0.00,,---,0.00,VWS V14.01,2013-04-30 17:30:00,
2013-05-01 03:35:00,65.1,62.4,29.82,NW,315,0.0,0.0,91,0.00,,---,0.00,VWS V14.01,2013-04-30 17:35:00,
2013-05-01 03:40:00,65.1,62.4,29.82,NW,315,0.0,1.1,91,0.00,,---,0.00,VWS V14.01,2013-04-30 17:40:00,
2013-05-01 03:45:00,64.9,62.2,29.82,NNW,338,2.7,2.7,91,0.00,,---,0.00,VWS V14.01,2013-04-30 17:45:00,
2013-05-01 03:50:00,64.9,62.2,29.82,NNW,338,1.6,1.6,91,0.00,,---,0.00,VWS V14.01,2013-04-30 17:50:00,
2013-05-01 03:55:00,64.9,62.2,29.82,NNW,338,0.0,1.6,91,0.00,,---,0.00,VWS V14.01,2013-04-30 17:55:00,
2013-05-01 04:00:00,64.8,62.1,29.82,NNW,338,0.0,2.7,91,0.00,,---,0.00,VWS V14.01,2013-04-30 18:00:00,
2013-05-01 04:05:00,64.8,62.1,29.82,NNW,338,1.6,2.7,91,0.00,,---,0.00,VWS V14.01,2013-04-30 18:05:00,
2013-05-01 04:10:00,64.8,62.1,29.82,NW,315,1.3,1.3,91,0.00,,---,0.00,VWS V14.01,2013-04-30 18:10:00,
2013-05-01 04:15:00,64.8,62.1,29.82,NW,315,1.3,2.7,91,0.00,,---,0.00,VWS V14.01,2013-04-30 18:15:00,
2013-05-01 04:20:00,64.8,62.1,29.82,NW,315,1.6,1.6,91,0.00,,---,0.00,VWS V14.01,2013-04-30 18:20:00,
2013-05-01 04:25:00,64.6,61.9,29.82,NW,315,1.6,2.2,91,0.00,,---,0.00,VWS V14.01,2013-04-30 18:25:00,
2013-05-01 04:30:00,64.6,61.9,29.82,NW,315,1.1,1.1,91,0.00,,---,0.00,VWS V14.01,2013-04-30 18:30:00,
2013-05-01 04:35:00,64.6,61.9,29.82,WNW,292,0.0,0.0,91,0.00,,---,0.00,VWS V14.01,2013-04-30 18:35:00,
2013-05-01 04:40:00,64.6,61.9,29.82,WNW,292,0.0,0.0,91,0.00,,---,0.00,VWS V14.01,2013-04-30 18:40:00,
2013-05-01 04:45:00,64.4,61.7,29.82,WNW,292,0.0,0.0,91,0.00,,---,0.00,VWS V14.01,2013-04-30 18:45:00,
2013-05-01 04:50:00,64.4,61.7,29.82,WNW,292,0.0,0.0,91,0.00,,---,0.00,VWS V14.01,2013-04-30 18:50:00,
2013-05-01 04:55:00,64.4,61.7,29.82,WNW,292,1.1,1.1,91,0.00,,---,0.00,VWS V14.01,2013-04-30 18:55:00,
2013-05-01 05:00:00,64.4,61.7,29.82,West,270,0.0,1.6,91,0.00,,---,0.00,VWS V14.01,2013-04-30 19:00:00,
2013-05-01 05:05:00,64.4,61.7,29.82,NW,315,0.0,0.0,91,0.00,,---,0.00,VWS V14.01,2013-04-30 19:05:00,
2013-05-01 05:10:00,64.4,61.7,29.82,WNW,292,0.0,0.0,91,0.00,,---,0.00,VWS V14.01,2013-04-30 19:10:00,
2013-05-01 05:15:00,64.4,61.7,29.82,NNW,338,1.1,1.1,91,0.00,,---,0.00,VWS V14.01,2013-04-30 19:15:00,
2013-05-01 05:20:00,64.2,61.5,29.82,NW,315,0.0,0.0,91,0.00,,---,0.00,VWS V14.01,2013-04-30 19:20:00,
2013-05-01 05:25:00,64.2,61.5,29.82,WNW,292,2.0,2.0,91,0.00,,---,0.00,VWS V14.01,2013-04-30 19:25:00,
2013-05-01 05:30:00,64.2,61.5,29.82,WNW,292,1.1,2.0,91,0.00,,---,0.00,VWS V14.01,2013-04-30 19:30:00,
2013-05-01 05:35:00,64.2,61.5,29.82,WNW,292,0.9,1.6,91,0.00,,---,0.00,VWS V14.01,2013-04-30 19:35:00,
2013-05-01 05:40:00,64.2,61.5,29.82,NW,315,2.5,2.5,91,0.00,,---,0.00,VWS V14.01,2013-04-30 19:40:00,
2013-05-01 05:45:00,64.2,61.5,29.82,NW,315,2.0,2.0,91,0.00,,---,0.00,VWS V14.01,2013-04-30 19:45:00,
2013-05-01 05:50:00,64.2,61.5,29.82,WNW,292,1.3,1.3,91,0.00,,---,0.00,VWS V14.01,2013-04-30 19:50:00,
2013-05-01 05:55:00,64.2,61.5,29.82,WNW,292,2.2,2.2,91,0.00,,---,0.00,VWS V14.01,2013-04-30 19:55:00,
2013-05-01 06:00:00,64.0,61.4,29.82,WNW,292,1.6,2.0,91,0.00,,---,0.00,VWS V14.01,2013-04-30 20:00:00,
2013-05-01 06:05:00,64.0,61.4,29.82,North,0,3.1,3.1,91,0.00,,---,0.00,VWS V14.01,2013-04-30 20:05:00,
2013-05-01 06:10:00,64.0,61.4,29.82,North,0,2.0,2.0,91,0.00,,---,0.00,VWS V14.01,2013-04-30 20:10:00,
2013-05-01 06:15:00,64.0,61.4,29.82,WNW,292,2.5,2.5,91,0.00,,---,0.00,VWS V14.01,2013-04-30 20:15:00,
2013-05-01 06:20:00,64.0,61.4,29.82,NW,315,2.7,2.7,91,0.00,,---,0.00,VWS V14.01,2013-04-30 20:20:00,
2013-05-01 06:25:00,64.0,61.4,29.82,NW,315,4.0,5.4,91,0.00,,---,0.00,VWS V14.01,2013-04-30 20:25:00,
2013-05-01 06:30:00,64.0,61.4,29.82,WNW,292,3.1,4.3,91,0.00,,---,0.00,VWS V14.01,2013-04-30 20:30:00,
2013-05-01 06:35:00,63.9,61.5,29.82,West,270,2.7,2.7,92,0.00,,---,0.00,VWS V14.01,2013-04-30 20:35:00,
2013-05-01 06:40:00,63.9,61.5,29.82,NW,315,2.5,3.1,92,0.00,,---,0.00,VWS V14.01,2013-04-30 20:40:00,
2013-05-01 06:45:00,63.9,61.5,29.82,WNW,292,4.7,4.9,92,0.00,,---,0.00,VWS V14.01,2013-04-30 20:45:00,
2013-05-01 06:50:00,64.0,61.4,29.82,NNW,338,4.7,4.7,91,0.00,,---,0.00,VWS V14.01,2013-04-30 20:50:00,
2013-05-01 06:55:00,63.9,61.2,29.82,North,0,3.6,3.6,91,0.00,,---,0.00,VWS V14.01,2013-04-30 20:55:00,
2013-05-01 07:00:00,63.9,61.2,29.79,West,270,4.0,4.0,91,0.00,,---,0.00,VWS V14.01,2013-04-30 21:00:00,
2013-05-01 07:05:00,63.9,61.5,29.79,West,270,3.6,3.6,92,0.00,,---,0.00,VWS V14.01,2013-04-30 21:05:00,
2013-05-01 07:10:00,63.9,61.5,29.79,NNW,338,2.5,2.5,92,0.00,,---,0.00,VWS V14.01,2013-04-30 21:10:00,
2013-05-01 07:15:00,64.0,61.7,29.82,NNW,338,3.6,3.6,92,0.00,,---,0.00,VWS V14.01,2013-04-30 21:15:00,
2013-05-01 07:20:00,64.0,61.7,29.82,NNW,338,3.4,3.4,92,0.00,,---,0.00,VWS V14.01,2013-04-30 21:20:00,
2013-05-01 07:25:00,64.0,61.7,29.82,NW,315,3.6,3.6,92,0.00,,---,0.00,VWS V14.01,2013-04-30 21:25:00,
2013-05-01 07:30:00,64.2,61.8,29.82,NW,315,1.3,4.9,92,0.00,,---,0.00,VWS V14.01,2013-04-30 21:30:00,
2013-05-01 07:35:00,64.2,61.8,29.82,NNW,338,2.9,4.0,92,0.00,,---,0.00,VWS V14.01,2013-04-30 21:35:00,
2013-05-01 07:40:00,64.2,61.8,29.82,WNW,292,5.4,5.4,92,0.00,,---,0.00,VWS V14.01,2013-04-30 21:40:00,
2013-05-01 07:45:00,64.2,61.8,29.82,NW,315,3.1,4.3,92,0.00,,---,0.00,VWS V14.01,2013-04-30 21:45:00,
2013-05-01 07:50:00,64.4,61.7,29.82,WNW,292,3.1,4.0,91,0.00,,---,0.00,VWS V14.01,2013-04-30 21:50:00,
2013-05-01 07:55:00,64.4,61.7,29.82,NNW,338,3.6,3.6,91,0.00,,---,0.00,VWS V14.01,2013-04-30 21:55:00,
2013-05-01 08:00:00,64.4,61.7,29.82,NW,315,2.5,2.7,91,0.00,,---,0.00,VWS V14.01,2013-04-30 22:00:00,
2013-05-01 08:05:00,64.4,61.7,29.82,NNW,338,2.7,2.7,91,0.00,,---,0.00,VWS V14.01,2013-04-30 22:05:00,
2013-05-01 08:10:00,64.4,61.7,29.82,NNE,22,4.3,4.3,91,0.00,,---,0.00,VWS V14.01,2013-04-30 22:10:00,
2013-05-01 08:15:00,64.4,61.7,29.82,NE,45,2.9,2.9,91,0.00,,---,0.00,VWS V14.01,2013-04-30 22:15:00,
2013-05-01 08:20:00,64.4,61.7,29.82,NNW,338,2.5,2.7,91,0.00,,---,0.00,VWS V14.01,2013-04-30 22:20:00,
2013-05-01 08:25:00,64.4,61.7,29.82,WNW,292,0.0,3.1,91,0.00,,---,0.00,VWS V14.01,2013-04-30 22:25:00,
2013-05-01 08:30:00,64.6,61.9,29.82,NW,315,2.5,2.5,91,0.00,,---,0.00,VWS V14.01,2013-04-30 22:30:00,
2013-05-01 08:35:00,64.8,62.1,29.82,North,0,3.6,3.6,91,0.00,,---,0.00,VWS V14.01,2013-04-30 22:35:00,
2013-05-01 08:40:00,64.8,62.1,29.82,WNW,292,4.0,4.0,91,0.00,,---,0.00,VWS V14.01,2013-04-30 22:40:00,
2013-05-01 08:45:00,64.9,62.2,29.82,NW,315,4.0,4.7,91,0.00,,---,0.00,VWS V14.01,2013-04-30 22:45:00,
2013-05-01 08:50:00,65.3,62.6,29.82,WNW,292,3.4,3.8,91,0.00,,---,0.00,VWS V14.01,2013-04-30 22:50:00,
2013-05-01 08:55:00,65.5,62.5,29.82,WNW,292,2.5,3.4,90,0.00,,---,0.00,VWS V14.01,2013-04-30 22:55:00,
2013-05-01 09:00:00,65.7,62.7,29.79,West,270,3.8,3.8,90,0.00,,---,0.00,VWS V14.01,2013-04-30 23:00:00,
2013-05-01 09:05:00,65.8,62.8,29.79,NW,315,5.6,5.6,90,0.00,,---,0.00,VWS V14.01,2013-04-30 23:05:00,
2013-05-01 09:10:00,66.2,62.9,29.79,NW,315,3.8,3.8,89,0.00,,---,0.00,VWS V14.01,2013-04-30 23:10:00,
2013-05-01 09:15:00,66.6,63.2,29.79,WNW,292,4.0,5.6,89,0.00,,---,0.00,VWS V14.01,2013-04-30 23:15:00,
2013-05-01 09:20:00,66.9,63.3,29.79,WNW,292,3.6,3.6,88,0.00,,---,0.00,VWS V14.01,2013-04-30 23:20:00,
2013-05-01 09:25:00,67.5,63.5,29.79,WNW,292,4.9,4.9,87,0.00,,---,0.00,VWS V14.01,2013-04-30 23:25:00,
2013-05-01 09:30:00,68.0,63.7,29.79,North,0,5.4,5.4,86,0.00,,---,0.00,VWS V14.01,2013-04-30 23:30:00,
2013-05-01 09:35:00,68.2,63.5,29.79,WNW,292,5.6,5.6,85,0.00,,---,0.00,VWS V14.01,2013-04-30 23:35:00,
2013-05-01 09:40:00,68.7,63.3,29.79,NW,315,4.9,4.9,83,0.00,,---,0.00,VWS V14.01,2013-04-30 23:40:00,
2013-05-01 09:45:00,69.3,63.2,29.79,WNW,292,2.5,4.7,81,0.00,,---,0.00,VWS V14.01,2013-04-30 23:45:00,
2013-05-01 09:50:00,69.6,63.2,29.79,WNW,292,4.3,5.8,80,0.00,,---,0.00,VWS V14.01,2013-04-30 23:50:00,
2013-05-01 09:55:00,70.0,63.2,29.79,WNW,292,3.6,3.6,79,0.00,,---,0.00,VWS V14.01,2013-04-30 23:55:00,
2013-05-01 10:00:00,70.5,63.3,29.79,WNW,292,5.4,5.4,78,0.00,,---,0.00,VWS V14.01,2013-05-01 00:00:00,
2013-05-01 10:05:00,70.7,63.1,29.79,SSW,202,3.4,4.9,77,0.00,,---,0.00,VWS V14.01,2013-05-01 00:05:00,
2013-05-01 10:10:00,71.1,63.1,29.79,NW,315,1.1,2.9,76,0.00,,---,0.00,VWS V14.01,2013-05-01 00:10:00,
2013-05-01 10:15:00,71.4,63.5,29.79,North,0,4.3,4.3,76,0.00,,---,0.00,VWS V14.01,2013-05-01 00:15:00,
2013-05-01 10:20:00,72.0,63.2,29.79,WSW,248,5.8,8.1,74,0.00,,---,0.00,VWS V14.01,2013-05-01 00:20:00,
2013-05-01 10:25:00,72.3,63.2,29.79,North,0,4.0,4.7,73,0.00,,---,0.00,VWS V14.01,2013-05-01 00:25:00,
2013-05-01 10:30:00,72.7,63.1,29.79,WNW,292,3.6,3.6,72,0.00,,---,0.00,VWS V14.01,2013-05-01 00:30:00,
2013-05-01 10:35:00,72.9,62.9,29.79,NW,315,6.7,6.7,71,0.00,,---,0.00,VWS V14.01,2013-05-01 00:35:00,
2013-05-01 10:40:00,73.2,63.3,29.79,West,270,4.0,6.5,71,0.00,,---,0.00,VWS V14.01,2013-05-01 00:40:00,
2013-05-01 10:45:00,73.6,63.2,29.79,West,270,5.4,5.4,70,0.00,,---,0.00,VWS V14.01,2013-05-01 00:45:00,
2013-05-01 10:50:00,73.9,63.1,29.79,NW,315,5.8,5.8,69,0.00,,---,0.00,VWS V14.01,2013-05-01 00:50:00,
2013-05-01 10:55:00,74.1,62.9,29.79,WNW,292,5.6,5.6,68,0.00,,---,0.00,VWS V14.01,2013-05-01 00:55:00,
2013-05-01 11:00:00,74.3,62.6,29.76,NNW,338,6.5,6.5,67,0.00,,---,0.00,VWS V14.01,2013-05-01 01:00:00,
2013-05-01 11:05:00,74.7,63.4,29.76,NW,315,7.8,7.8,68,0.00,,---,0.00,VWS V14.01,2013-05-01 01:05:00,
2013-05-01 11:10:00,75.0,63.3,29.76,West,270,2.2,6.5,67,0.00,,---,0.00,VWS V14.01,2013-05-01 01:10:00,
2013-05-01 11:15:00,75.4,63.2,29.76,WNW,292,4.0,4.0,66,0.00,,---,0.00,VWS V14.01,2013-05-01 01:15:00,
2013-05-01 11:20:00,75.7,63.2,29.76,West,270,5.4,5.4,65,0.00,,---,0.00,VWS V14.01,2013-05-01 01:20:00,
2013-05-01 11:25:00,75.9,62.9,29.76,WNW,292,3.8,3.8,64,0.00,,---,0.00,VWS V14.01,2013-05-01 01:25:00,
2013-05-01 11:30:00,76.1,63.0,29.76,West,270,4.0,4.0,64,0.00,,---,0.00,VWS V14.01,2013-05-01 01:30:00,
2013-05-01 11:35:00,76.5,62.9,29.76,WNW,292,1.1,4.0,63,0.00,,---,0.00,VWS V14.01,2013-05-01 01:35:00,
2013-05-01 11:40:00,76.8,63.3,29.76,West,270,7.2,7.2,63,0.00,,---,0.00,VWS V14.01,2013-05-01 01:40:00,
2013-05-01 11:45:00,77.0,63.0,29.74,SW,225,6.0,6.0,62,0.00,,---,0.00,VWS V14.01,2013-05-01 01:45:00,
2013-05-01 11:50:00,77.2,63.2,29.74,NW,315,3.6,3.6,62,0.00,,---,0.00,VWS V14.01,2013-05-01 01:50:00,
2013-05-01 11:55:00,77.7,63.2,29.74,West,270,3.8,3.8,61,0.00,,---,0.00,VWS V14.01,2013-05-01 01:55:00,
2013-05-01 12:00:00,77.9,62.9,29.74,WSW,248,4.3,4.3,60,0.00,,---,0.00,VWS V14.01,2013-05-01 02:00:00,
2013-05-01 12:05:00,78.3,63.2,29.74,West,270,2.5,3.8,60,0.00,,---,0.00,VWS V14.01,2013-05-01 02:05:00,
2013-05-01 12:10:00,78.4,63.4,29.74,WNW,292,3.4,3.4,60,0.00,,---,0.00,VWS V14.01,2013-05-01 02:10:00,
2013-05-01 12:15:00,78.8,62.8,29.71,West,270,5.4,5.4,58,0.00,,---,0.00,VWS V14.01,2013-05-01 02:15:00,
2013-05-01 12:20:00,79.0,63.0,29.71,NW,315,3.1,3.1,58,0.00,,---,0.00,VWS V14.01,2013-05-01 02:20:00,
2013-05-01 12:25:00,79.3,62.8,29.71,WNW,292,6.0,6.0,57,0.00,,---,0.00,VWS V14.01,2013-05-01 02:25:00,
2013-05-01 12:30:00,79.5,63.0,29.71,NW,315,2.2,7.6,57,0.00,,---,0.00,VWS V14.01,2013-05-01 02:30:00,
2013-05-01 12:35:00,79.7,63.1,29.71,WNW,292,3.8,5.4,57,0.00,,---,0.00,VWS V14.01,2013-05-01 02:35:00,
2013-05-01 12:40:00,79.9,62.8,29.71,West,270,2.9,2.9,56,0.00,,---,0.00,VWS V14.01,2013-05-01 02:40:00,
2013-05-01 12:45:00,80.1,63.0,29.68,SW,225,3.4,3.4,56,0.00,,---,0.00,VWS V14.01,2013-05-01 02:45:00,
2013-05-01 12:50:00,80.2,63.1,29.68,NNW,338,3.8,3.8,56,0.00,,---,0.00,VWS V14.01,2013-05-01 02:50:00,
2013-05-01 12:55:00,80.2,62.6,29.68,West,270,2.2,5.8,55,0.00,,---,0.00,VWS V14.01,2013-05-01 02:55:00,
2013-05-01 13:00:00,80.4,62.8,29.68,NW,315,5.4,5.4,55,0.00,,---,0.00,VWS V14.01,2013-05-01 03:00:00,
2013-05-01 13:05:00,80.4,62.3,29.68,West,270,4.9,4.9,54,0.00,,---,0.00,VWS V14.01,2013-05-01 03:05:00,
2013-05-01 13:10:00,80.6,62.4,29.68,NW,315,3.4,3.4,54,0.00,,---,0.00,VWS V14.01,2013-05-01 03:10:00,
2013-05-01 13:15:00,80.6,61.9,29.68,West,270,4.5,4.5,53,0.00,,---,0.00,VWS V14.01,2013-05-01 03:15:00,
2013-05-01 13:20:00,80.8,61.5,29.68,West,270,3.1,5.4,52,0.00,,---,0.00,VWS V14.01,2013-05-01 03:20:00,
2013-05-01 13:25:00,81.1,61.9,29.68,NW,315,2.5,2.7,52,0.00,,---,0.00,VWS V14.01,2013-05-01 03:25:00,
2013-05-01 13:30:00,81.3,62.0,29.68,NW,315,4.9,4.9,52,0.00,,---,0.00,VWS V14.01,2013-05-01 03:30:00,
2013-05-01 13:35:00,81.3,62.0,29.68,WNW,292,4.9,4.9,52,0.00,,---,0.00,VWS V14.01,2013-05-01 03:35:00,
2013-05-01 13:40:00,81.3,61.5,29.68,West,270,3.8,3.8,51,0.00,,---,0.00,VWS V14.01,2013-05-01 03:40:00,
2013-05-01 13:45:00,81.1,61.3,29.65,West,270,5.4,5.4,51,0.00,,---,0.00,VWS V14.01,2013-05-01 03:45:00,
2013-05-01 13:50:00,81.1,60.8,29.65,West,270,4.3,4.3,50,0.00,,---,0.00,VWS V14.01,2013-05-01 03:50:00,
2013-05-01 13:55:00,81.0,61.2,29.65,West,270,2.2,3.1,51,0.00,,---,0.00,VWS V14.01,2013-05-01 03:55:00,
2013-05-01 14:00:00,81.0,60.6,29.65,WNW,292,3.1,3.1,50,0.00,,---,0.00,VWS V14.01,2013-05-01 04:00:00,
2013-05-01 14:01:00,81.0,60.6,29.65,WNW,292,3.1,3.1,50,0.00,,---,0.00,VWS V14.01,2013-05-01 04:01:00,
2013-05-01 14:06:00,81.0,60.0,29.65,NW,315,7.4,7.4,49,0.00,,---,0.00,VWS V14.01,2013-05-01 04:06:00,
2013-05-01 14:11:00,80.8,59.9,29.65,West,270,5.8,5.8,49,0.00,,---,0.00,VWS V14.01,2013-05-01 04:11:00,
2013-05-01 14:16:00,80.8,59.9,29.65,WNW,292,3.6,3.6,49,0.00,,---,0.00,VWS V14.01,2013-05-01 04:16:00,
2013-05-01 14:21:00,80.8,59.9,29.65,West,270,2.9,4.3,49,0.00,,---,0.00,VWS V14.01,2013-05-01 04:21:00,
2013-05-01 14:26:00,80.8,59.9,29.65,West,270,3.4,5.4,49,0.00,,---,0.00,VWS V14.01,2013-05-01 04:26:00,
2013-05-01 14:31:00,80.6,59.7,29.65,WNW,292,4.9,4.9,49,0.00,,---,0.00,VWS V14.01,2013-05-01 04:31:00,
2013-05-01 14:36:00,80.6,59.1,29.65,SW,225,3.8,4.0,48,0.00,,---,0.00,VWS V14.01,2013-05-01 04:36:00,
2013-05-01 14:41:00,80.2,59.4,29.65,NW,315,5.8,5.8,49,0.00,,---,0.00,VWS V14.01,2013-05-01 04:41:00,
2013-05-01 14:46:00,80.4,59.0,29.65,NW,315,3.6,3.6,48,0.00,,---,0.00,VWS V14.01,2013-05-01 04:46:00,
2013-05-01 14:51:00,80.4,59.0,29.65,West,270,3.8,3.8,48,0.00,,---,0.00,VWS V14.01,2013-05-01 04:51:00,
2013-05-01 14:56:00,80.6,59.1,29.65,WSW,248,3.4,3.4,48,0.00,,---,0.00,VWS V14.01,2013-05-01 04:56:00,
2013-05-01 15:01:00,80.4,59.0,29.65,NW,315,6.5,6.5,48,0.00,,---,0.00,VWS V14.01,2013-05-01 05:01:00,
2013-05-01 15:06:00,80.4,59.0,29.65,NW,315,4.7,5.8,48,0.00,,---,0.00,VWS V14.01,2013-05-01 05:06:00,
2013-05-01 15:11:00,80.4,58.4,29.65,West,270,3.6,3.6,47,0.00,,---,0.00,VWS V14.01,2013-05-01 05:11:00,
2013-05-01 15:16:00,80.4,58.4,29.65,NW,315,4.3,4.3,47,0.00,,---,0.00,VWS V14.01,2013-05-01 05:16:00,
2013-05-01 15:21:00,80.4,58.4,29.65,NW,315,5.4,5.4,47,0.00,,---,0.00,VWS V14.01,2013-05-01 05:21:00,
2013-05-01 15:26:00,80.4,57.8,29.65,NW,315,2.9,3.6,46,0.00,,---,0.00,VWS V14.01,2013-05-01 05:26:00,
2013-05-01 15:31:00,80.2,57.6,29.65,NW,315,6.7,6.7,46,0.00,,---,0.00,VWS V14.01,2013-05-01 05:31:00,
2013-05-01 15:36:00,80.2,57.6,29.65,WSW,248,3.1,6.3,46,0.00,,---,0.00,VWS V14.01,2013-05-01 05:36:00,
2013-05-01 15:41:00,80.1,57.4,29.65,NW,315,6.5,6.5,46,0.00,,---,0.00,VWS V14.01,2013-05-01 05:41:00,
2013-05-01 15:46:00,79.9,57.9,29.65,West,270,6.3,6.3,47,0.00,,---,0.00,VWS V14.01,2013-05-01 05:46:00,
2013-05-01 15:51:00,79.9,57.3,29.65,West,270,7.2,7.2,46,0.00,,---,0.00,VWS V14.01,2013-05-01 05:51:00,
2013-05-01 15:56:00,79.7,57.1,29.65,NW,315,3.1,5.4,46,0.00,,---,0.00,VWS V14.01,2013-05-01 05:56:00,
2013-05-01 16:01:00,79.7,56.5,29.65,NNW,338,6.5,6.5,45,0.00,,---,0.00,VWS V14.01,2013-05-01 06:01:00,
2013-05-01 16:06:00,79.5,56.3,29.65,NW,315,4.0,6.5,45,0.00,,---,0.00,VWS V14.01,2013-05-01 06:06:00,
2013-05-01 16:11:00,79.5,56.3,29.65,West,270,4.5,7.4,45,0.00,,---,0.00,VWS V14.01,2013-05-01 06:11:00,
2013-05-01 16:16:00,79.5,56.3,29.65,West,270,4.3,6.0,45,0.00,,---,0.00,VWS V14.01,2013-05-01 06:16:00,
2013-05-01 16:21:00,79.3,55.6,29.65,NW,315,3.8,3.8,44,0.00,,---,0.00,VWS V14.01,2013-05-01 06:21:00,
2013-05-01 16:26:00,79.3,55.6,29.65,NNW,338,3.4,3.4,44,0.00,,---,0.00,VWS V14.01,2013-05-01 06:26:00,
2013-05-01 16:31:00,79.2,56.0,29.65,NW,315,3.6,4.9,45,0.00,,---,0.00,VWS V14.01,2013-05-01 06:31:00,
2013-05-01 16:36:00,79.0,55.2,29.65,NW,315,3.6,3.6,44,0.00,,---,0.00,VWS V14.01,2013-05-01 06:36:00,
2013-05-01 16:41:00,78.6,55.5,29.65,NW,315,4.0,4.0,45,0.00,,---,0.00,VWS V14.01,2013-05-01 06:41:00,
2013-05-01 16:46:00,78.3,55.2,29.65,WNW,292,4.0,4.0,45,0.00,,---,0.00,VWS V14.01,2013-05-01 06:46:00,
2013-05-01 16:51:00,77.9,54.9,29.65,West,270,3.6,3.6,45,0.00,,---,0.00,VWS V14.01,2013-05-01 06:51:00,
2013-05-01 16:56:00,77.7,54.7,29.65,NW,315,2.7,2.7,45,0.00,,---,0.00,VWS V14.01,2013-05-01 06:56:00,
2013-05-01 17:01:00,77.5,54.5,29.65,West,270,2.0,2.7,45,0.00,,---,0.00,VWS V14.01,2013-05-01 07:01:00,
2013-05-01 17:06:00,77.2,54.2,29.65,SSE,158,2.0,2.0,45,0.00,,---,0.00,VWS V14.01,2013-05-01 07:06:00,
2013-05-01 17:11:00,76.8,54.5,29.68,WSW,248,4.7,4.7,46,0.00,,---,0.00,VWS V14.01,2013-05-01 07:11:00,
2013-05-01 17:16:00,75.2,56.9,29.68,South,180,5.8,8.1,53,0.00,,---,0.00,VWS V14.01,2013-05-01 07:16:00,
2013-05-01 17:21:00,74.1,57.9,29.68,SSW,202,5.8,5.8,57,0.00,,---,0.00,VWS V14.01,2013-05-01 07:21:00,
2013-05-01 17:26:00,73.6,58.4,29.68,SE,135,1.1,1.1,59,0.00,,---,0.00,VWS V14.01,2013-05-01 07:26:00,
2013-05-01 17:31:00,73.2,58.0,29.68,South,180,3.1,3.1,59,0.00,,---,0.00,VWS V14.01,2013-05-01 07:31:00,
2013-05-01 17:36:00,73.0,57.9,29.68,SSE,158,5.8,5.8,59,0.00,,---,0.00,VWS V14.01,2013-05-01 07:36:00,
2013-05-01 17:41:00,72.5,58.8,29.71,SE,135,3.6,4.9,62,0.00,,---,0.00,VWS V14.01,2013-05-01 07:41:00,
2013-05-01 17:46:00,71.8,59.8,29.71,SSE,158,6.9,6.9,66,0.00,,---,0.00,VWS V14.01,2013-05-01 07:46:00,
2013-05-01 17:51:00,71.4,59.5,29.71,SSE,158,7.6,7.6,66,0.00,,---,0.00,VWS V14.01,2013-05-01 07:51:00,
2013-05-01 17:56:00,71.2,59.7,29.71,SSE,158,1.1,4.3,67,0.00,,---,0.00,VWS V14.01,2013-05-01 07:56:00,
2013-05-01 18:01:00,70.9,59.4,29.71,East,90,3.6,3.6,67,0.00,,---,0.00,VWS V14.01,2013-05-01 08:01:00,
2013-05-01 18:06:00,70.9,59.4,29.71,SSE,158,2.5,2.5,67,0.00,,---,0.00,VWS V14.01,2013-05-01 08:06:00,
2013-05-01 18:11:00,70.5,59.5,29.71,SE,135,0.0,2.9,68,0.00,,---,0.00,VWS V14.01,2013-05-01 08:11:00,
2013-05-01 18:16:00,70.3,59.3,29.71,SW,225,3.6,3.6,68,0.00,,---,0.00,VWS V14.01,2013-05-01 08:16:00,
2013-05-01 18:21:00,70.2,59.5,29.71,SSE,158,4.0,4.0,69,0.00,,---,0.00,VWS V14.01,2013-05-01 08:21:00,
2013-05-01 18:26:00,70.0,59.8,29.74,South,180,2.9,5.6,70,0.00,,---,0.00,VWS V14.01,2013-05-01 08:26:00,
2013-05-01 18:31:00,70.2,59.5,29.74,SE,135,6.5,6.5,69,0.00,,---,0.00,VWS V14.01,2013-05-01 08:31:00,
2013-05-01 18:36:00,70.0,59.3,29.74,East,90,2.5,2.9,69,0.00,,---,0.00,VWS V14.01,2013-05-01 08:36:00,
2013-05-01 18:41:00,69.8,59.6,29.74,ESE,112,4.3,4.3,70,0.00,,---,0.00,VWS V14.01,2013-05-01 08:41:00,
2013-05-01 18:46:00,69.6,60.6,29.74,SSE,158,4.7,4.7,73,0.00,,---,0.00,VWS V14.01,2013-05-01 08:46:00,
2013-05-01 18:51:00,69.4,59.6,29.74,WSW,248,2.7,3.4,71,0.00,,---,0.00,VWS V14.01,2013-05-01 08:51:00,
2013-05-01 18:56:00,69.3,60.2,29.74,SE,135,6.3,6.3,73,0.00,,---,0.00,VWS V14.01,2013-05-01 08:56:00,
2013-05-01 19:01:00,69.3,59.5,29.74,SSE,158,3.6,3.6,71,0.00,,---,0.00,VWS V14.01,2013-05-01 09:01:00,
2013-05-01 19:06:00,69.1,60.5,29.74,SE,135,2.9,2.9,74,0.00,,---,0.00,VWS V14.01,2013-05-01 09:06:00,
2013-05-01 19:11:00,69.1,60.1,29.74,SSW,202,5.4,5.4,73,0.00,,---,0.00,VWS V14.01,2013-05-01 09:11:00,
2013-05-01 19:16:00,69.1,59.7,29.74,ESE,112,3.6,3.6,72,0.00,,---,0.00,VWS V14.01,2013-05-01 09:16:00,
2013-05-01 19:21:00,68.9,59.9,29.74,South,180,2.5,2.9,73,0.00,,---,0.00,VWS V14.01,2013-05-01 09:21:00,
2013-05-01 19:26:00,68.9,59.5,29.74,South,180,2.0,2.0,72,0.00,,---,0.00,VWS V14.01,2013-05-01 09:26:00,
2013-05-01 19:31:00,68.7,60.5,29.74,ESE,112,4.9,4.9,75,0.00,,---,0.00,VWS V14.01,2013-05-01 09:31:00,
2013-05-01 19:36:00,68.5,60.7,29.74,SSW,202,2.0,3.4,76,0.00,,---,0.00,VWS V14.01,2013-05-01 09:36:00,
2013-05-01 19:41:00,68.4,60.1,29.74,South,180,2.2,2.2,75,0.00,,---,0.00,VWS V14.01,2013-05-01 09:41:00,
2013-05-01 19:46:00,68.4,60.1,29.74,SE,135,2.5,2.5,75,0.00,,---,0.00,VWS V14.01,2013-05-01 09:46:00,
2013-05-01 19:51:00,68.4,59.8,29.74,East,90,3.4,6.3,74,0.00,,---,0.00,VWS V14.01,2013-05-01 09:51:00,
2013-05-01 19:56:00,68.2,60.3,29.74,NE,45,2.5,2.5,76,0.00,,---,0.00,VWS V14.01,2013-05-01 09:56:00,
2013-05-01 20:01:00,68.2,60.7,29.74,ESE,112,3.1,3.1,77,0.00,,---,0.00,VWS V14.01,2013-05-01 10:01:00,
2013-05-01 20:06:00,68.0,60.2,29.74,SSW,202,2.0,2.0,76,0.00,,---,0.00,VWS V14.01,2013-05-01 10:06:00,
2013-05-01 20:11:00,68.2,60.3,29.76,SE,135,1.1,1.1,76,0.00,,---,0.00,VWS V14.01,2013-05-01 10:11:00,
2013-05-01 20:16:00,68.0,60.9,29.76,South,180,2.9,2.9,78,0.00,,---,0.00,VWS V14.01,2013-05-01 10:16:00,
2013-05-01 20:21:00,68.0,60.5,29.76,SSW,202,2.0,2.0,77,0.00,,---,0.00,VWS V14.01,2013-05-01 10:21:00,
2013-05-01 20:26:00,68.0,60.5,29.76,SE,135,2.7,2.7,77,0.00,,---,0.00,VWS V14.01,2013-05-01 10:26:00,
2013-05-01 20:31:00,68.0,60.9,29.76,ESE,112,3.8,6.7,78,0.00,,---,0.00,VWS V14.01,2013-05-01 10:31:00,
2013-05-01 20:36:00,68.0,61.2,29.76,South,180,2.9,2.9,79,0.00,,---,0.00,VWS V14.01,2013-05-01 10:36:00,
2013-05-01 20:41:00,67.8,61.1,29.76,SSW,202,2.0,2.0,79,0.00,,---,0.00,VWS V14.01,2013-05-01 10:41:00,
2013-05-01 20:46:00,67.8,61.1,29.76,SE,135,1.6,4.9,79,0.00,,---,0.00,VWS V14.01,2013-05-01 10:46:00,
2013-05-01 20:51:00,67.6,60.5,29.76,SSE,158,2.5,2.5,78,0.00,,---,0.00,VWS V14.01,2013-05-01 10:51:00,
2013-05-01 20:56:00,67.6,60.9,29.76,SSW,202,4.7,5.6,79,0.00,,---,0.00,VWS V14.01,2013-05-01 10:56:00,
2013-05-01 21:01:00,67.6,60.5,29.76,South,180,3.6,3.6,78,0.00,,---,0.00,VWS V14.01,2013-05-01 11:01:00,
2013-05-01 21:06:00,67.6,60.2,29.76,SSE,158,4.0,4.0,77,0.00,,---,0.00,VWS V14.01,2013-05-01 11:06:00,
2013-05-01 21:11:00,67.6,60.2,29.76,SSE,158,2.5,2.9,77,0.00,,---,0.00,VWS V14.01,2013-05-01 11:11:00,
2013-05-01 21:16:00,67.5,60.0,29.76,SSE,158,3.8,3.8,77,0.00,,---,0.00,VWS V14.01,2013-05-01 11:16:00,
2013-05-01 21:21:00,67.3,60.2,29.76,SW,225,2.9,2.9,78,0.00,,---,0.00,VWS V14.01,2013-05-01 11:21:00,
2013-05-01 21:26:00,67.3,60.2,29.79,South,180,2.7,2.7,78,0.00,,---,0.00,VWS V14.01,2013-05-01 11:26:00,
2013-05-01 21:31:00,67.3,60.2,29.79,SSE,158,2.7,2.7,78,0.00,,---,0.00,VWS V14.01,2013-05-01 11:31:00,
2013-05-01 21:36:00,67.1,60.0,29.79,ENE,68,1.6,1.6,78,0.00,,---,0.00,VWS V14.01,2013-05-01 11:36:00,
2013-05-01 21:41:00,67.1,60.0,29.79,SE,135,7.4,7.4,78,0.00,,---,0.00,VWS V14.01,2013-05-01 11:41:00,
2013-05-01 21:46:00,67.1,60.4,29.79,ESE,112,2.5,2.5,79,0.00,,---,0.00,VWS V14.01,2013-05-01 11:46:00,
2013-05-01 21:51:00,67.1,60.4,29.79,South,180,1.3,1.3,79,0.00,,---,0.00,VWS V14.01,2013-05-01 11:51:00,
2013-05-01 21:56:00,67.1,60.4,29.79,SW,225,4.3,4.3,79,0.00,,---,0.00,VWS V14.01,2013-05-01 11:56:00,
2013-05-01 22:01:00,67.1,60.4,29.79,South,180,1.6,1.6,79,0.00,,---,0.00,VWS V14.01,2013-05-01 12:01:00,
2013-05-01 22:06:00,67.3,60.5,29.79,South,180,4.5,4.7,79,0.00,,---,0.00,VWS V14.01,2013-05-01 12:06:00,
2013-05-01 22:11:00,67.1,60.4,29.79,SSE,158,3.6,3.6,79,0.00,,---,0.00,VWS V14.01,2013-05-01 12:11:00,
2013-05-01 22:16:00,67.1,60.7,29.79,SW,225,8.7,8.7,80,0.00,,---,0.00,VWS V14.01,2013-05-01 12:16:00,
2013-05-01 22:21:00,67.1,60.4,29.79,SSE,158,5.8,5.8,79,0.00,,---,0.00,VWS V14.01,2013-05-01 12:21:00,
2013-05-01 22:26:00,67.1,60.7,29.79,South,180,1.1,1.1,80,0.00,,---,0.00,VWS V14.01,2013-05-01 12:26:00,
2013-05-01 22:31:00,67.1,60.4,29.79,South,180,5.8,5.8,79,0.00,,---,0.00,VWS V14.01,2013-05-01 12:31:00,
2013-05-01 22:36:00,67.1,60.4,29.79,South,180,1.6,2.9,79,0.00,,---,0.00,VWS V14.01,2013-05-01 12:36:00,
2013-05-01 22:41:00,67.1,60.4,29.79,SSE,158,2.9,2.9,79,0.00,,---,0.00,VWS V14.01,2013-05-01 12:41:00,
2013-05-01 22:46:00,67.1,60.4,29.79,South,180,4.0,4.0,79,0.00,,---,0.00,VWS V14.01,2013-05-01 12:46:00,
2013-05-01 22:51:00,67.1,60.4,29.79,South,180,3.4,3.4,79,0.00,,---,0.00,VWS V14.01,2013-05-01 12:51:00,
2013-05-01 22:56:00,67.1,60.4,29.79,SSE,158,2.7,2.7,79,0.00,,---,0.00,VWS V14.01,2013-05-01 12:56:00,
2013-05-01 23:01:00,66.9,60.6,29.79,South,180,4.0,4.0,80,0.00,,---,0.00,VWS V14.01,2013-05-01 13:01:00,
2013-05-01 23:06:00,66.9,60.2,29.79,SE,135,2.7,3.6,79,0.00,,---,0.00,VWS V14.01,2013-05-01 13:06:00,
2013-05-01 23:11:00,66.9,60.2,29.79,SE,135,2.7,2.7,79,0.00,,---,0.00,VWS V14.01,2013-05-01 13:11:00,
2013-05-01 23:16:00,66.9,60.6,29.79,ESE,112,2.9,2.9,80,0.00,,---,0.00,VWS V14.01,2013-05-01 13:16:00,
2013-05-01 23:21:00,66.9,60.2,29.79,SE,135,2.7,2.7,79,0.00,,---,0.00,VWS V14.01,2013-05-01 13:21:00,
2013-05-01 23:26:00,67.1,60.0,29.79,SSW,202,3.1,3.1,78,0.00,,---,0.00,VWS V14.01,2013-05-01 13:26:00,
2013-05-01 23:31:00,67.1,60.0,29.79,SSW,202,3.4,3.8,78,0.00,,---,0.00,VWS V14.01,2013-05-01 13:31:00,
2013-05-01 23:36:00,67.1,60.4,29.79,South,180,4.3,4.3,79,0.00,,---,0.00,VWS V14.01,2013-05-01 13:36:00,
2013-05-01 23:41:00,67.1,60.4,29.79,South,180,4.3,4.3,79,0.00,,---,0.00,VWS V14.01,2013-05-01 13:41:00,
2013-05-01 23:46:00,66.9,60.2,29.79,SE,135,3.1,6.3,79,0.00,,---,0.00,VWS V14.01,2013-05-01 13:46:00,
2013-05-01 23:51:00,66.9,59.5,29.79,SE,135,10.1,10.1,77,0.00,,---,0.00,VWS V14.01,2013-05-01 13:51:00,
2013-05-01 23:56:00,66.7,58.9,29.79,ESE,112,3.8,3.8,76,0.00,,---,0.00,VWS V14.01,2013-05-01 13:56:00,